Find Local Weather

World > North America > United States > Colorado

Manitou Springs, Colorado Regional Weather

Lat: 38.86N, Lon: 104.91W
Wx Zone: COZ085
Feedback
Expires:201809241100;;129705
ASUS45 KBOU 241010
RWRCO 

WEATHER ROUNDUP FOR COLORADO
NATIONAL WEATHER SERVICE DENVER/BOULDER CO
400 AM MDT MON SEP 24 2018

NOTE: "FAIR" INDICATES FEW OR NO CLOUDS BELOW 12000 FEET WITH NO
SIGNIFICANT WEATHER AND/OR OBSTRUCTIONS TO VISIBILITY.


COZ041-046-047-076>085-087-088-241100-
...PIKES PEAK/PALMER DIVIDE AND SOUTHERN FOOTHILLS...
  
CITY           SKY/WX    TMP DP  RH WIND       PRES   REMARKS
COLO. SPRINGS  FAIR      66  29  24 N10       29.98S                  
A. F. ACADEMY  FAIR      67  26  21 W18       29.98S                  
SCHRIEVER AFB  NOT AVBL                                               
CHEYENNE MTN   NOT AVBL                                               
ELLICOTT         N/A    N/A N/A N/A N3        29.96R                  
FALCON         FAIR      61  24  24 NW8       30.03S                  
FORT CARSON    NOT AVBL                                               
LIMON          FAIR      46  31  55 N5        29.89F                  
MONUMENT HILL  FAIR      59  27  29 SW8       30.04S                  
CANON CITY     CLEAR     61  30  31 W12       29.93S                  
WALSENBURG     NOT AVBL                                               
TRINIDAD       FAIR      60  31  33 W15       29.98S                  
$$


SKY/WX - Weather  TMP - Temperature  DP - Dew Point  RH - Relative Humidity
WIND - Wind Direction/Speed PRES - Barometric Pressure